TimeEDT,TemperatureF,Dew PointF,Humidity,Sea Level PressureIn,VisibilityMPH,Wind Direction,Wind SpeedMPH,Gust SpeedMPH,PrecipitationIn,Events,Conditions,WindDirDegrees,DateUTC
12:53 AM,64.9,34.0,32,30.00,10.0,NW,9.2,20.7,N/A,,Mostly Cloudy,310,2013-03-26 04:53:00
1:53 AM,63.0,35.1,35,30.01,10.0,NW,10.4,-,N/A,,Mostly Cloudy,310,2013-03-26 05:53:00
2:53 AM,60.1,39.9,47,30.01,10.0,NW,9.2,20.7,N/A,,Partly Cloudy,310,2013-03-26 06:53:00
3:53 AM,57.9,42.1,56,30.01,10.0,NW,13.8,25.3,N/A,,Mostly Cloudy,320,2013-03-26 07:53:00
4:53 AM,59.0,43.0,55,30.01,10.0,NNW,10.4,-,N/A,,Mostly Cloudy,340,2013-03-26 08:53:00
5:53 AM,59.0,39.0,48,30.03,10.0,NNW,18.4,23.0,N/A,,Overcast,340,2013-03-26 09:53:00
6:53 AM,59.0,39.9,49,30.05,10.0,North,17.3,26.5,N/A,,Mostly Cloudy,350,2013-03-26 10:53:00
7:53 AM,57.9,35.1,42,30.07,10.0,North,20.7,-,N/A,,Mostly Cloudy,350,2013-03-26 11:53:00
8:53 AM,59.0,34.0,39,30.09,10.0,NNW,18.4,-,N/A,,Mostly Cloudy,340,2013-03-26 12:53:00
9:53 AM,62.1,30.9,31,30.11,10.0,North,18.4,24.2,N/A,,Mostly Cloudy,350,2013-03-26 13:53:00
10:53 AM,64.0,30.9,29,30.11,10.0,North,16.1,-,N/A,,Partly Cloudy,350,2013-03-26 14:53:00
11:53 AM,66.9,34.0,30,30.12,10.0,NNW,10.4,20.7,N/A,,Partly Cloudy,340,2013-03-26 15:53:00
12:53 PM,68.0,35.1,30,30.12,10.0,NNW,16.1,21.9,N/A,,Partly Cloudy,330,2013-03-26 16:53:00
1:53 PM,69.1,28.0,22,30.09,10.0,NNW,13.8,25.3,N/A,,Clear,330,2013-03-26 17:53:00
2:53 PM,69.1,30.9,24,30.09,10.0,NW,13.8,23.0,N/A,,Clear,310,2013-03-26 18:53:00
3:53 PM,69.1,30.9,24,30.08,10.0,NNW,23.0,28.8,N/A,,Clear,330,2013-03-26 19:53:00
4:53 PM,68.0,34.0,28,30.08,10.0,NW,17.3,24.2,N/A,,Clear,320,2013-03-26 20:53:00
5:53 PM,66.9,34.0,30,30.09,10.0,NW,15.0,21.9,N/A,,Clear,310,2013-03-26 21:53:00
6:53 PM,66.0,35.1,32,30.10,10.0,NW,13.8,23.0,N/A,,Clear,320,2013-03-26 22:53:00
7:53 PM,63.0,33.1,33,30.13,10.0,NW,15.0,23.0,N/A,,Clear,320,2013-03-26 23:53:00
8:53 PM,60.1,30.9,33,30.16,10.0,NNW,17.3,-,N/A,,Clear,330,2013-03-27 00:53:00
9:53 PM,57.9,28.0,32,30.19,10.0,NW,16.1,20.7,N/A,,Clear,320,2013-03-27 01:53:00
10:53 PM,55.0,30.9,40,30.21,10.0,NW,10.4,-,N/A,,Clear,310,2013-03-27 02:53:00
11:53 PM,53.1,32.0,45,30.22,10.0,NW,11.5,19.6,N/A,,Clear,310,2013-03-27 03:53:00